When you browse on this site, cookies collect data to enhance your experience and personalize the content and advertising you see.
Visit our Privacy Policy to learn more. By continuing to use the site, you agree to this use of cookies and data.

Stündliche Wetter Bolshie Lzi

Heute, 25 September, Freitag

Zeit Temperatur Niederschläge Wind Luftdruck Luftfeuchtigkeit
00:00 +13°C° 0 mm 3 m/S 753 mmHg 76%
01:00 +12°C° 0 mm 3 m/S 753 mmHg 78%
02:00 +12°C° 0 mm 3 m/S 753 mmHg 78%
03:00 +12°C° 0 mm 3 m/S 753 mmHg 80%
04:00 +12°C° 0 mm 3 m/S 753 mmHg 82%
05:00 +11°C° 0 mm 3 m/S 753 mmHg 83%
06:00 +12°C° 0 mm 3 m/S 753 mmHg 80%
07:00 +13°C° 0 mm 3 m/S 753 mmHg 76%
08:00 +14°C° 0 mm 3 m/S 753 mmHg 72%
09:00 +16°C° 0 mm 3 m/S 753 mmHg 68%
10:00 +17°C° 0 mm 3 m/S 753 mmHg 64%
11:00 +19°C° 0 mm 3 m/S 753 mmHg 59%
12:00 +20°C° 0 mm 3 m/S 753 mmHg 57%
13:00 +20°C° 0 mm 3 m/S 753 mmHg 55%
14:00 +21°C° 0 mm 3 m/S 753 mmHg 53%
15:00 +20°C° 0 mm 3 m/S 753 mmHg 58%
16:00 +19°C° 0 mm 3 m/S 752 mmHg 63%
17:00 +18°C° 0 mm 2 m/S 752 mmHg 67%
18:00 +17°C° 0 mm 2 m/S 752 mmHg 71%
19:00 +16°C° 0 mm 2 m/S 752 mmHg 75%
20:00 +14°C° 0 mm 3 m/S 752 mmHg 80%
21:00 +14°C° 0 mm 3 m/S 752 mmHg 82%
22:00 +15°C° 0 mm 2 m/S 752 mmHg 85%
23:00 +14°C° 0 mm 2 m/S 752 mmHg 88%

Morgen, 26 September, Samstag

Zeit Temperatur Niederschläge Wind Luftdruck Luftfeuchtigkeit
00:00 +14°C° 0 mm 2 m/S 752 mmHg 91%
01:00 +13°C° 0 mm 3 m/S 752 mmHg 93%
02:00 +13°C° 0 mm 3 m/S 752 mmHg 95%
03:00 +13°C° 0 mm 3 m/S 752 mmHg 95%
04:00 +13°C° 0 mm 3 m/S 752 mmHg 95%
05:00 +13°C° 0 mm 3 m/S 752 mmHg 95%
06:00 +14°C° 0 mm 3 m/S 752 mmHg 88%
07:00 +16°C° 0 mm 3 m/S 753 mmHg 82%
08:00 +15°C° 0 mm 4 m/S 753 mmHg 75%
09:00 +18°C° 0 mm 4 m/S 753 mmHg 69%
10:00 +19°C° 0 mm 4 m/S 753 mmHg 63%
11:00 +21°C° 0 mm 4 m/S 753 mmHg 56%
12:00 +21°C° 0 mm 4 m/S 753 mmHg 53%
13:00 +22°C° 0 mm 4 m/S 753 mmHg 51%
14:00 +23°C° 0 mm 4 m/S 753 mmHg 48%
15:00 +22°C° 0 mm 4 m/S 754 mmHg 53%
16:00 +21°C° 0 mm 3 m/S 754 mmHg 58%
17:00 +20°C° 0 mm 3 m/S 754 mmHg 63%
18:00 +19°C° 0 mm 3 m/S 754 mmHg 67%
19:00 +18°C° 0 mm 3 m/S 755 mmHg 71%
20:00 +17°C° 0 mm 3 m/S 755 mmHg 75%
21:00 +16°C° 0 mm 3 m/S 755 mmHg 77%
22:00 +16°C° 0 mm 3 m/S 756 mmHg 79%
23:00 +15°C° 0 mm 2 m/S 756 mmHg 81%

übermorgen, 27 September, Sonntag

Zeit Temperatur Niederschläge Wind Luftdruck Luftfeuchtigkeit
00:00 +14°C° 0 mm 2 m/S 756 mmHg 84%
01:00 +14°C° 0 mm 2 m/S 756 mmHg 87%
02:00 +13°C° 0 mm 2 m/S 757 mmHg 90%
03:00 +13°C° 0 mm 2 m/S 757 mmHg 91%
04:00 +13°C° 0 mm 2 m/S 757 mmHg 92%
05:00 +12°C° 0 mm 2 m/S 757 mmHg 93%
06:00 +12°C° 0 mm 3 m/S 757 mmHg 88%
07:00 +13°C° 0 mm 3 m/S 757 mmHg 84%
08:00 +13°C° 0 mm 3 m/S 757 mmHg 80%
09:00 +16°C° 0 mm 3 m/S 757 mmHg 74%
10:00 +17°C° 0 mm 3 m/S 757 mmHg 68%
11:00 +19°C° 0 mm 3 m/S 757 mmHg 61%
12:00 +20°C° 0 mm 4 m/S 757 mmHg 59%
13:00 +20°C° 0 mm 4 m/S 757 mmHg 57%
14:00 +21°C° 0 mm 4 m/S 757 mmHg 55%
15:00 +21°C° 0 mm 4 m/S 757 mmHg 58%
16:00 +20°C° 0 mm 3 m/S 757 mmHg 61%
17:00 +19°C° 0 mm 3 m/S 756 mmHg 64%
18:00 +18°C° 0 mm 3 m/S 757 mmHg 65%
19:00 +17°C° 0 mm 3 m/S 757 mmHg 66%
20:00 +16°C° 0 mm 3 m/S 758 mmHg 67%
21:00 +14°C° 0 mm 3 m/S 758 mmHg 68%
22:00 +13°C° 0 mm 3 m/S 758 mmHg 69%
23:00 +13°C° 0 mm 3 m/S 758 mmHg 70%

28 September, Montag

Zeit Temperatur Niederschläge Wind Luftdruck Luftfeuchtigkeit
00:00 +12°C° 0 mm 3 m/S 758 mmHg 72%
01:00 +12°C° 0 mm 3 m/S 758 mmHg 73%
02:00 +11°C° 0 mm 3 m/S 758 mmHg 74%
03:00 +11°C° 0 mm 3 m/S 758 mmHg 74%
04:00 +11°C° 0 mm 3 m/S 758 mmHg 73%
05:00 +11°C° 0 mm 3 m/S 757 mmHg 73%
06:00 +11°C° 0.1 mm 3 m/S 757 mmHg 75%
07:00 +11°C° 0.1 mm 3 m/S 757 mmHg 78%
08:00 +11°C° 0.1 mm 3 m/S 757 mmHg 81%
09:00 +12°C° 0.1 mm 3 m/S 757 mmHg 83%
10:00 +12°C° 0.1 mm 3 m/S 757 mmHg 84%
11:00 +13°C° 0.1 mm 2 m/S 757 mmHg 86%
12:00 +13°C° 0.1 mm 2 m/S 758 mmHg 86%
13:00 +13°C° 0.1 mm 2 m/S 758 mmHg 86%
14:00 +12°C° 0.1 mm 1 m/S 758 mmHg 86%
15:00 +12°C° 0.1 mm 1 m/S 758 mmHg 87%
16:00 +12°C° 0.1 mm 1 m/S 758 mmHg 88%
17:00 +12°C° 0.1 mm 1 m/S 758 mmHg 90%
18:00 +12°C° 0 mm 1 m/S 758 mmHg 92%
19:00 +12°C° 0 mm 1 m/S 759 mmHg 94%
20:00 +12°C° 0 mm 1 m/S 759 mmHg 96%
21:00 +11°C° 0 mm 1 m/S 759 mmHg 96%
22:00 +11°C° 0 mm 1 m/S 759 mmHg 97%
23:00 +11°C° 0 mm 1 m/S 760 mmHg 97%

29 September, Dienstag

Zeit Temperatur Niederschläge Wind Luftdruck Luftfeuchtigkeit
00:00 +11°C° 0 mm 1 m/S 760 mmHg 97%
01:00 +10°C° 0 mm 1 m/S 760 mmHg 96%
02:00 +10°C° 0 mm 1 m/S 760 mmHg 96%
03:00 +10°C° 0 mm 1 m/S 760 mmHg 96%
04:00 +9°C° 0 mm 1 m/S 760 mmHg 95%
05:00 +9°C° 0 mm 1 m/S 760 mmHg 95%
06:00 +10°C° 0 mm 1 m/S 760 mmHg 93%
07:00 +10°C° 0 mm 1 m/S 760 mmHg 90%
08:00 +11°C° 0 mm 1 m/S 760 mmHg 87%
09:00 +13°C° 0 mm 1 m/S 760 mmHg 82%
10:00 +14°C° 0 mm 1 m/S 760 mmHg 76%
11:00 +15°C° 0 mm 1 m/S 760 mmHg 70%
12:00 +16°C° 0 mm 1 m/S 760 mmHg 67%
13:00 +17°C° 0 mm 2 m/S 760 mmHg 64%
14:00 +17°C° 0 mm 2 m/S 760 mmHg 61%
15:00 +16°C° 0 mm 2 m/S 759 mmHg 67%
16:00 +15°C° 0 mm 2 m/S 759 mmHg 74%
17:00 +14°C° 0 mm 2 m/S 759 mmHg 80%
18:00 +14°C° 0 mm 2 m/S 759 mmHg 86%
19:00 +13°C° 0 mm 2 m/S 759 mmHg 91%
20:00 +12°C° 0 mm 2 m/S 759 mmHg 96%
21:00 +12°C° 0 mm 2 m/S 759 mmHg 97%
22:00 +10°C° 0 mm 2 m/S 759 mmHg 97%
23:00 +10°C° 0 mm 2 m/S 758 mmHg 98%

30 September, Mittwoch

Zeit Temperatur Niederschläge Wind Luftdruck Luftfeuchtigkeit
00:00 +10°C° 0 mm 2 m/S 758 mmHg 98%
01:00 +10°C° 0 mm 2 m/S 758 mmHg 98%
02:00 +10°C° 0 mm 2 m/S 758 mmHg 98%
03:00 +9°C° 0 mm 2 m/S 758 mmHg 97%
04:00 +9°C° 0 mm 2 m/S 758 mmHg 97%
05:00 +9°C° 0 mm 2 m/S 758 mmHg 96%
06:00 +9°C° 0 mm 2 m/S 758 mmHg 93%
07:00 +10°C° 0 mm 3 m/S 757 mmHg 89%
08:00 +10°C° 0 mm 3 m/S 757 mmHg 86%
09:00 +11°C° 0 mm 3 m/S 757 mmHg 80%
10:00 +13°C° 0 mm 3 m/S 758 mmHg 75%
11:00 +14°C° 0 mm 3 m/S 758 mmHg 70%
12:00 +16°C° 0 mm 3 m/S 757 mmHg 69%
13:00 +16°C° 0 mm 3 m/S 757 mmHg 67%
14:00 +17°C° 0 mm 3 m/S 757 mmHg 66%
15:00 +16°C° 0 mm 3 m/S 757 mmHg 66%
16:00 +14°C° 0 mm 3 m/S 757 mmHg 67%
17:00 +13°C° 0 mm 3 m/S 758 mmHg 67%
18:00 +13°C° 0 mm 3 m/S 758 mmHg 67%
19:00 +12°C° 0 mm 3 m/S 758 mmHg 68%
20:00 +11°C° 0 mm 3 m/S 758 mmHg 68%
21:00 +11°C° 0 mm 3 m/S 758 mmHg 69%
22:00 +11°C° 0 mm 3 m/S 758 mmHg 70%
23:00 +11°C° 0 mm 3 m/S 758 mmHg 70%
Mehr zeigen